Time,TemperatureF,DewpointF,PressureIn,WindDirection,WindDirectionDegrees,WindSpeedMPH,WindSpeedGustMPH,Humidity,HourlyPrecipIn,Conditions,Clouds,dailyrainin,SolarRadiationWatts/m^2,SoftwareType,DateUTC
2013-01-13 00:12:00,38.0,15.0,-100.00,East,89,16.0,22.0,39,0.00,,,0.00,0.000000,,2013-01-13 08:12:00,
2013-01-13 00:22:00,38.0,15.0,-100.00,East,89,16.0,22.0,39,0.00,,,0.00,0.000000,,2013-01-13 08:22:00,
2013-01-13 00:32:00,38.0,15.0,-100.00,East,89,16.0,22.0,39,0.00,,,0.00,0.000000,,2013-01-13 08:32:00,
2013-01-13 00:42:00,38.0,15.0,-100.00,East,89,16.0,22.0,39,0.00,,,0.00,0.000000,,2013-01-13 08:42:00,
2013-01-13 01:12:00,38.0,15.0,-100.00,East,90,15.0,22.0,39,0.00,,,0.00,0.000000,,2013-01-13 09:12:00,
2013-01-13 01:22:00,38.0,15.0,-100.00,East,90,15.0,22.0,39,0.00,,,0.00,0.000000,,2013-01-13 09:22:00,
2013-01-13 01:32:00,38.0,15.0,-100.00,East,90,15.0,22.0,39,0.00,,,0.00,0.000000,,2013-01-13 09:32:00,
2013-01-13 01:42:00,38.0,15.0,-100.00,East,90,15.0,22.0,39,0.00,,,0.00,0.000000,,2013-01-13 09:42:00,
2013-01-13 02:12:00,38.0,15.0,-100.00,East,92,17.0,24.0,39,0.00,,,0.00,0.000000,,2013-01-13 10:12:00,
2013-01-13 02:22:00,38.0,15.0,-100.00,East,92,17.0,24.0,39,0.00,,,0.00,0.000000,,2013-01-13 10:22:00,
2013-01-13 02:32:00,38.0,15.0,-100.00,East,92,17.0,24.0,39,0.00,,,0.00,0.000000,,2013-01-13 10:32:00,
2013-01-13 02:42:00,38.0,15.0,-100.00,East,92,17.0,24.0,39,0.00,,,0.00,0.000000,,2013-01-13 10:42:00,
2013-01-13 03:12:00,38.0,13.0,-100.00,East,87,19.0,23.0,36,0.00,,,0.00,0.000000,,2013-01-13 11:12:00,
2013-01-13 03:22:00,38.0,13.0,-100.00,East,87,19.0,23.0,36,0.00,,,0.00,0.000000,,2013-01-13 11:22:00,
2013-01-13 03:32:00,38.0,13.0,-100.00,East,87,19.0,23.0,36,0.00,,,0.00,0.000000,,2013-01-13 11:32:00,
2013-01-13 03:42:00,38.0,13.0,-100.00,East,87,19.0,23.0,36,0.00,,,0.00,0.000000,,2013-01-13 11:42:00,
2013-01-13 04:12:00,38.0,12.0,-100.00,East,90,20.0,26.0,34,0.00,,,0.00,0.000000,,2013-01-13 12:12:00,
2013-01-13 04:22:00,38.0,12.0,-100.00,East,90,20.0,26.0,34,0.00,,,0.00,0.000000,,2013-01-13 12:22:00,
2013-01-13 04:32:00,38.0,12.0,-100.00,East,90,20.0,26.0,34,0.00,,,0.00,0.000000,,2013-01-13 12:32:00,
2013-01-13 04:42:00,38.0,12.0,-100.00,East,90,20.0,26.0,34,0.00,,,0.00,0.000000,,2013-01-13 12:42:00,
2013-01-13 05:12:00,38.0,13.0,-100.00,East,92,21.0,28.0,35,0.00,,,0.00,0.000000,,2013-01-13 13:12:00,
2013-01-13 05:22:00,38.0,13.0,-100.00,East,92,21.0,28.0,35,0.00,,,0.00,0.000000,,2013-01-13 13:22:00,
2013-01-13 05:32:00,38.0,13.0,-100.00,East,92,21.0,28.0,35,0.00,,,0.00,0.000000,,2013-01-13 13:32:00,
2013-01-13 05:42:00,38.0,13.0,-100.00,East,92,21.0,28.0,35,0.00,,,0.00,0.000000,,2013-01-13 13:42:00,
2013-01-13 06:12:00,37.0,12.0,-100.00,East,93,18.0,25.0,35,0.00,,,0.00,0.000000,,2013-01-13 14:12:00,
2013-01-13 06:22:00,37.0,12.0,-100.00,East,93,18.0,25.0,35,0.00,,,0.00,0.000000,,2013-01-13 14:22:00,
2013-01-13 06:33:00,37.0,12.0,-100.00,East,93,18.0,25.0,35,0.00,,,0.00,0.000000,,2013-01-13 14:33:00,
2013-01-13 06:42:00,37.0,12.0,-100.00,East,93,18.0,25.0,35,0.00,,,0.00,0.000000,,2013-01-13 14:42:00,
2013-01-13 07:12:00,37.0,12.0,-100.00,East,91,19.0,27.0,35,0.00,,,0.00,0.000000,,2013-01-13 15:12:00,
2013-01-13 07:22:00,37.0,12.0,-100.00,East,91,19.0,27.0,35,0.00,,,0.00,0.000000,,2013-01-13 15:22:00,
2013-01-13 07:33:00,37.0,12.0,-100.00,East,91,19.0,27.0,35,0.00,,,0.00,0.000000,,2013-01-13 15:33:00,
2013-01-13 07:42:00,37.0,12.0,-100.00,East,91,19.0,27.0,35,0.00,,,0.00,0.000000,,2013-01-13 15:42:00,
2013-01-13 08:12:00,37.0,12.0,-100.00,East,93,19.0,24.0,35,0.00,,,0.00,12.000000,,2013-01-13 16:12:00,
2013-01-13 08:22:00,37.0,12.0,-100.00,East,93,19.0,24.0,35,0.00,,,0.00,12.000000,,2013-01-13 16:22:00,
2013-01-13 08:33:00,37.0,12.0,-100.00,East,93,19.0,24.0,35,0.00,,,0.00,12.000000,,2013-01-13 16:33:00,
2013-01-13 08:42:00,37.0,12.0,-100.00,East,93,19.0,24.0,35,0.00,,,0.00,12.000000,,2013-01-13 16:42:00,
2013-01-13 09:12:00,39.0,11.0,-100.00,ENE,75,15.0,21.0,31,0.00,,,0.00,162.000000,,2013-01-13 17:12:00,
2013-01-13 09:22:00,39.0,11.0,-100.00,ENE,75,15.0,21.0,31,0.00,,,0.00,162.000000,,2013-01-13 17:22:00,
2013-01-13 09:33:00,39.0,11.0,-100.00,ENE,75,15.0,21.0,31,0.00,,,0.00,162.000000,,2013-01-13 17:33:00,
2013-01-13 09:42:00,39.0,11.0,-100.00,ENE,75,15.0,21.0,31,0.00,,,0.00,162.000000,,2013-01-13 17:42:00,
2013-01-13 10:12:00,40.0,13.0,-100.00,ENE,74,13.0,19.0,32,0.00,,,-99.99,361.000000,,2013-01-13 18:12:00,
2013-01-13 10:22:00,40.0,13.0,-100.00,ENE,74,13.0,19.0,32,0.00,,,-99.99,361.000000,,2013-01-13 18:22:00,
2013-01-13 10:32:00,40.0,13.0,-100.00,ENE,74,13.0,19.0,32,0.00,,,-99.99,361.000000,,2013-01-13 18:32:00,
2013-01-13 10:42:00,40.0,13.0,-100.00,ENE,74,13.0,19.0,32,0.00,,,-99.99,361.000000,,2013-01-13 18:42:00,
2013-01-13 11:12:00,43.0,10.0,-100.00,ENE,77,12.0,18.0,25,0.00,,,0.00,490.000000,,2013-01-13 19:12:00,
2013-01-13 11:22:00,43.0,10.0,-100.00,ENE,77,12.0,18.0,25,0.00,,,0.00,490.000000,,2013-01-13 19:22:00,
2013-01-13 11:33:00,43.0,10.0,-100.00,ENE,77,12.0,18.0,25,0.00,,,0.00,490.000000,,2013-01-13 19:33:00,
2013-01-13 11:42:00,43.0,10.0,-100.00,ENE,77,12.0,18.0,25,0.00,,,0.00,490.000000,,2013-01-13 19:42:00,
2013-01-13 12:12:00,45.0,9.0,-100.00,ENE,64,3.0,13.0,23,0.00,,,0.00,550.000000,,2013-01-13 20:12:00,
2013-01-13 12:22:00,45.0,9.0,-100.00,ENE,64,3.0,13.0,23,0.00,,,0.00,550.000000,,2013-01-13 20:22:00,
2013-01-13 12:32:00,45.0,9.0,-100.00,ENE,64,3.0,13.0,23,0.00,,,0.00,550.000000,,2013-01-13 20:32:00,
2013-01-13 12:43:00,45.0,9.0,-100.00,ENE,64,3.0,13.0,23,0.00,,,0.00,550.000000,,2013-01-13 20:43:00,
2013-01-13 13:12:00,49.0,14.0,-100.00,WNW,294,5.0,10.0,24,0.00,,,-99.99,583.000000,,2013-01-13 21:12:00,
2013-01-13 13:23:00,49.0,14.0,-100.00,WNW,294,5.0,10.0,24,0.00,,,-99.99,583.000000,,2013-01-13 21:23:00,
2013-01-13 13:32:00,49.0,14.0,-100.00,WNW,294,5.0,10.0,24,0.00,,,-99.99,583.000000,,2013-01-13 21:32:00,
2013-01-13 13:42:00,49.0,14.0,-100.00,WNW,294,5.0,10.0,24,0.00,,,-99.99,583.000000,,2013-01-13 21:42:00,
2013-01-13 14:12:00,47.0,13.0,-100.00,WSW,256,17.0,24.0,25,0.00,,,0.00,534.000000,,2013-01-13 22:12:00,
2013-01-13 14:22:00,47.0,13.0,-100.00,WSW,256,17.0,24.0,25,0.00,,,0.00,534.000000,,2013-01-13 22:22:00,
2013-01-13 14:33:00,47.0,13.0,-100.00,WSW,256,17.0,24.0,25,0.00,,,0.00,534.000000,,2013-01-13 22:33:00,
2013-01-13 14:42:00,47.0,13.0,-100.00,WSW,256,17.0,24.0,25,0.00,,,0.00,534.000000,,2013-01-13 22:42:00,
2013-01-13 15:12:00,47.0,16.0,-100.00,West,259,14.0,25.0,28,0.00,,,0.00,413.000000,,2013-01-13 23:12:00,
2013-01-13 15:22:00,47.0,16.0,-100.00,West,259,14.0,25.0,28,0.00,,,0.00,413.000000,,2013-01-13 23:22:00,
2013-01-13 15:32:00,47.0,16.0,-100.00,West,259,14.0,25.0,28,0.00,,,0.00,413.000000,,2013-01-13 23:32:00,
2013-01-13 15:42:00,47.0,16.0,-100.00,West,259,14.0,25.0,28,0.00,,,0.00,413.000000,,2013-01-13 23:42:00,
2013-01-13 16:12:00,47.0,18.0,-100.00,WSW,257,15.0,24.0,31,0.00,,,0.00,261.000000,,2013-01-14 00:12:00,
2013-01-13 16:22:00,47.0,18.0,-100.00,WSW,257,15.0,24.0,31,0.00,,,0.00,261.000000,,2013-01-14 00:22:00,
2013-01-13 16:32:00,47.0,18.0,-100.00,WSW,257,15.0,24.0,31,0.00,,,0.00,261.000000,,2013-01-14 00:32:00,
2013-01-13 16:42:00,47.0,18.0,-100.00,WSW,257,15.0,24.0,31,0.00,,,0.00,261.000000,,2013-01-14 00:42:00,
2013-01-13 17:12:00,44.0,20.0,-100.00,WSW,244,12.0,20.0,38,0.00,,,0.00,116.000000,,2013-01-14 01:12:00,
2013-01-13 17:22:00,44.0,20.0,-100.00,WSW,244,12.0,20.0,38,0.00,,,0.00,116.000000,,2013-01-14 01:22:00,
2013-01-13 17:32:00,44.0,20.0,-100.00,WSW,244,12.0,20.0,38,0.00,,,0.00,116.000000,,2013-01-14 01:32:00,
2013-01-13 17:42:00,44.0,20.0,-100.00,WSW,244,12.0,20.0,38,0.00,,,0.00,116.000000,,2013-01-14 01:42:00,
2013-01-13 18:12:00,42.0,21.0,-100.00,WSW,254,12.0,22.0,42,0.00,,,0.00,6.000000,,2013-01-14 02:12:00,
2013-01-13 18:22:00,42.0,21.0,-100.00,WSW,254,12.0,22.0,42,0.00,,,0.00,6.000000,,2013-01-14 02:22:00,
2013-01-13 18:32:00,42.0,21.0,-100.00,WSW,254,12.0,22.0,42,0.00,,,0.00,6.000000,,2013-01-14 02:32:00,
2013-01-13 18:42:00,42.0,21.0,-100.00,WSW,254,12.0,22.0,42,0.00,,,0.00,6.000000,,2013-01-14 02:42:00,
2013-01-13 19:12:00,41.0,23.0,-100.00,East,81,9.0,13.0,48,0.00,,,0.00,0.000000,,2013-01-14 03:12:00,
2013-01-13 19:22:00,41.0,23.0,-100.00,East,81,9.0,13.0,48,0.00,,,0.00,0.000000,,2013-01-14 03:22:00,
2013-01-13 19:32:00,41.0,23.0,-100.00,East,81,9.0,13.0,48,0.00,,,0.00,0.000000,,2013-01-14 03:32:00,
2013-01-13 19:42:00,41.0,23.0,-100.00,East,81,9.0,13.0,48,0.00,,,0.00,0.000000,,2013-01-14 03:42:00,
2013-01-13 20:12:00,39.0,20.0,-100.00,East,92,25.0,32.0,47,0.00,,,0.00,0.000000,,2013-01-14 04:12:00,
2013-01-13 20:22:00,39.0,20.0,-100.00,East,92,25.0,32.0,47,0.00,,,0.00,0.000000,,2013-01-14 04:22:00,
2013-01-13 20:32:00,39.0,20.0,-100.00,East,92,25.0,32.0,47,0.00,,,0.00,0.000000,,2013-01-14 04:32:00,
2013-01-13 20:42:00,39.0,20.0,-100.00,East,92,25.0,32.0,47,0.00,,,0.00,0.000000,,2013-01-14 04:42:00,
2013-01-13 21:12:00,38.0,16.0,-100.00,East,81,14.0,32.0,41,0.00,,,0.00,0.000000,,2013-01-14 05:12:00,
2013-01-13 21:22:00,38.0,16.0,-100.00,East,81,14.0,32.0,41,0.00,,,0.00,0.000000,,2013-01-14 05:22:00,
2013-01-13 21:32:00,38.0,16.0,-100.00,East,81,14.0,32.0,41,0.00,,,0.00,0.000000,,2013-01-14 05:32:00,
2013-01-13 21:42:00,38.0,16.0,-100.00,East,81,14.0,32.0,41,0.00,,,0.00,0.000000,,2013-01-14 05:42:00,
2013-01-13 22:12:00,38.0,14.0,-100.00,ENE,69,21.0,29.0,37,0.00,,,0.00,0.000000,,2013-01-14 06:12:00,
2013-01-13 22:22:00,38.0,14.0,-100.00,ENE,69,21.0,29.0,37,0.00,,,0.00,0.000000,,2013-01-14 06:22:00,
2013-01-13 22:32:00,38.0,14.0,-100.00,ENE,69,21.0,29.0,37,0.00,,,0.00,0.000000,,2013-01-14 06:32:00,
2013-01-13 22:42:00,38.0,14.0,-100.00,ENE,69,21.0,29.0,37,0.00,,,0.00,0.000000,,2013-01-14 06:42:00,
2013-01-13 23:12:00,37.0,7.0,-100.00,ENE,72,25.0,35.0,28,0.00,,,0.00,0.000000,,2013-01-14 07:12:00,
2013-01-13 23:22:00,37.0,7.0,-100.00,ENE,72,25.0,35.0,28,0.00,,,0.00,0.000000,,2013-01-14 07:22:00,
2013-01-13 23:32:00,37.0,7.0,-100.00,ENE,72,25.0,35.0,28,0.00,,,0.00,0.000000,,2013-01-14 07:32:00,
2013-01-13 23:42:00,37.0,7.0,-100.00,ENE,72,25.0,35.0,28,0.00,,,0.00,0.000000,,2013-01-14 07:42:00,